Regional Weather Roundup
Issued by NWS Goodland, KS

Home | Current Version | Previous Version | Graphics & Text | Print | Product List | Glossary On
Versions: 1 2 3 4 5 6 7 8 9 10 11 12 13 14 15 16 17 18 19 20 21 22 23 24 25 26 27 28 29 30 31 32 33 34 35 36 37 38 39 40 41 42 43 44 45 46 47 48 49 50
000
ASUS43 KGLD 182059
RWRGLD

GOODLAND FORECAST AREA HOURLY WEATHER ROUNDUP
NATIONAL WEATHER SERVICE GOODLAND KS
300 PM MDT FRI AUG 18 2017

...OFFICIAL OBSERVATIONS...

CITY           SKY/WX    TMP DP  RH WIND       PRES   REMARKS
GOODLAND KS    SUNNY     87  54  32 N10       30.08F
HILL CITY KS   SUNNY     90  60  36 N10       29.99F
IMPERIAL NEB   SUNNY     86  44  23 VRB5      30.06F
MCCOOK NEB     SUNNY     88  56  33 E9        30.01F
AKRON CO       SUNNY     84  42  22 N3        30.14F
BURLINGTON CO  SUNNY     85  52  32 E8        30.12F
LIMON CO       SUNNY     84  43  23 NW7       30.18F
$$

...UNOFFICIAL OBSERVATIONS...

CITY           SKY/WX    TMP DP  RH WIND       PRES   REMARKS
LENORA KS        N/A     86  32  14 N7          N/A
NORTON KS      SUNNY     88  48  25 NE8       30.00S
SHARON SPRINGS   N/A     88  63  43 N7          N/A
TRENTON NEB      N/A     87  32  14 CALM        N/A
KIT CARSON CO    N/A     85  52  31 CALM        N/A
YUMA CO        FAIR      81  30  16 CALM      30.12S
$$



USA.gov is the U.S. government's official web portal to all federal, state and local government web resources and services.